When you browse on this site, cookies collect data to enhance your experience and personalize the content and advertising you see.
Visit our Privacy Policy to learn more. By continuing to use the site, you agree to this use of cookies and data.
  • En España
  • Lista de países
  • Para 7 días
  • Temperatura del agua
  • El tiempo en el mapa
  • Informadores
  • user-avatar
    Iniciar sesión

    Tiempo cada hora Bubanza

    Hoy, 26 Febrero, Miércoles

    Tiempo Temperatura Precipitaciones Viento Presión Humedad
    00:00 +21°C° 0.1 mm 0 mps 673 mmHg 86%
    01:00 +21°C° 0.1 mm 0 mps 673 mmHg 85%
    02:00 +21°C° 0 mm 0 mps 672 mmHg 83%
    03:00 +21°C° 0 mm 0 mps 672 mmHg 83%
    04:00 +21°C° 0 mm 0 mps 673 mmHg 84%
    05:00 +21°C° 0 mm 0 mps 673 mmHg 84%
    06:00 +21°C° 0.3 mm 0 mps 673 mmHg 85%
    07:00 +21°C° 0.3 mm 0 mps 673 mmHg 86%
    08:00 +21°C° 0.3 mm 0 mps 674 mmHg 87%
    09:00 +22°C° 0.2 mm 0 mps 674 mmHg 84%
    10:00 +23°C° 0.2 mm 0 mps 674 mmHg 81%
    11:00 +26°C° 0.2 mm 1 mps 674 mmHg 78%
    12:00 +27°C° 0.5 mm 1 mps 673 mmHg 75%
    13:00 +28°C° 0.5 mm 1 mps 673 mmHg 73%
    14:00 +29°C° 0.5 mm 2 mps 672 mmHg 70%
    15:00 +28°C° 0.6 mm 2 mps 671 mmHg 73%
    16:00 +27°C° 0.6 mm 2 mps 671 mmHg 77%
    17:00 +26°C° 0.6 mm 2 mps 670 mmHg 81%
    18:00 +25°C° 0.6 mm 1 mps 671 mmHg 84%
    19:00 +24°C° 0.6 mm 1 mps 671 mmHg 87%
    20:00 +21°C° 0.6 mm 0 mps 672 mmHg 90%
    21:00 +21°C° 0.1 mm 0 mps 672 mmHg 90%
    22:00 +21°C° 0.1 mm 0 mps 673 mmHg 90%
    23:00 +21°C° 0.1 mm 0 mps 673 mmHg 90%

    Mañana, 27 Febrero, Jueves

    Tiempo Temperatura Precipitaciones Viento Presión Humedad
    00:00 +21°C° 0.1 mm 0 mps 673 mmHg 90%
    01:00 +20°C° 0.1 mm 0 mps 672 mmHg 91%
    02:00 +20°C° 0.1 mm 0 mps 672 mmHg 92%
    03:00 +20°C° 0.4 mm 0 mps 672 mmHg 92%
    04:00 +20°C° 0.4 mm 0 mps 672 mmHg 92%
    05:00 +20°C° 0.4 mm 0 mps 672 mmHg 92%
    06:00 +21°C° 0.4 mm 0 mps 673 mmHg 91%
    07:00 +22°C° 0.4 mm 0 mps 674 mmHg 89%
    08:00 +22°C° 0.4 mm 0 mps 674 mmHg 88%
    09:00 +23°C° 0.6 mm 0 mps 674 mmHg 87%
    10:00 +23°C° 0.6 mm 0 mps 674 mmHg 85%
    11:00 +26°C° 0.6 mm 1 mps 674 mmHg 84%
    12:00 +27°C° 1.1 mm 1 mps 674 mmHg 81%
    13:00 +28°C° 1.1 mm 1 mps 673 mmHg 77%
    14:00 +29°C° 1.1 mm 1 mps 673 mmHg 74%
    15:00 +27°C° 1.3 mm 1 mps 673 mmHg 79%
    16:00 +26°C° 1.3 mm 1 mps 672 mmHg 85%
    17:00 +25°C° 1.3 mm 1 mps 672 mmHg 90%
    18:00 +24°C° 1 mm 1 mps 672 mmHg 92%
    19:00 +23°C° 1 mm 1 mps 673 mmHg 94%
    20:00 +21°C° 1 mm 0 mps 673 mmHg 96%
    21:00 +20°C° 0.6 mm 0 mps 673 mmHg 96%
    22:00 +20°C° 0.6 mm 0 mps 673 mmHg 96%
    23:00 +22°C° 0.6 mm 1 mps 673 mmHg 97%

    Pasado mañana, 28 Febrero, Viernes

    Tiempo Temperatura Precipitaciones Viento Presión Humedad
    00:00 +20°C° 0 mm 0 mps 673 mmHg 96%
    01:00 +20°C° 0 mm 0 mps 672 mmHg 95%
    02:00 +20°C° 0 mm 0 mps 672 mmHg 94%
    03:00 +20°C° 0 mm 0 mps 672 mmHg 94%
    04:00 +22°C° 0 mm 1 mps 672 mmHg 93%
    05:00 +22°C° 0 mm 1 mps 672 mmHg 93%
    06:00 +22°C° 0 mm 1 mps 673 mmHg 91%
    07:00 +23°C° 0 mm 1 mps 674 mmHg 89%
    08:00 +24°C° 0 mm 1 mps 674 mmHg 88%
    09:00 +26°C° 0.4 mm 1 mps 674 mmHg 82%
    10:00 +27°C° 0.4 mm 1 mps 674 mmHg 77%
    11:00 +29°C° 0.4 mm 1 mps 675 mmHg 72%
    12:00 +29°C° 1.1 mm 1 mps 674 mmHg 73%
    13:00 +29°C° 1.1 mm 1 mps 673 mmHg 75%
    14:00 +29°C° 1.1 mm 1 mps 672 mmHg 77%
    15:00 +28°C° 1.9 mm 1 mps 671 mmHg 80%
    16:00 +27°C° 1.9 mm 1 mps 671 mmHg 84%
    17:00 +26°C° 1.9 mm 1 mps 671 mmHg 88%
    18:00 +25°C° 0.5 mm 1 mps 671 mmHg 88%
    19:00 +24°C° 0.5 mm 1 mps 672 mmHg 89%
    20:00 +23°C° 0.5 mm 1 mps 672 mmHg 90%
    21:00 +23°C° 0 mm 1 mps 673 mmHg 90%
    22:00 +23°C° 0 mm 1 mps 673 mmHg 90%
    23:00 +21°C° 0 mm 0 mps 673 mmHg 89%

    29 Febrero, Sábado

    Tiempo Temperatura Precipitaciones Viento Presión Humedad
    00:00 +20°C° 0 mm 0 mps 673 mmHg 89%
    01:00 +20°C° 0 mm 0 mps 672 mmHg 90%
    02:00 +20°C° 0 mm 0 mps 672 mmHg 90%
    03:00 +20°C° 0.3 mm 0 mps 672 mmHg 90%
    04:00 +22°C° 0.3 mm 1 mps 672 mmHg 91%
    05:00 +22°C° 0.3 mm 1 mps 672 mmHg 91%
    06:00 +23°C° 0.4 mm 1 mps 673 mmHg 90%
    07:00 +21°C° 0.4 mm 0 mps 673 mmHg 88%
    08:00 +22°C° 0.4 mm 0 mps 674 mmHg 87%
    09:00 +23°C° 0.8 mm 0 mps 674 mmHg 84%
    10:00 +27°C° 0.8 mm 1 mps 674 mmHg 82%
    11:00 +28°C° 0.8 mm 1 mps 674 mmHg 79%
    12:00 +28°C° 0.8 mm 1 mps 673 mmHg 78%
    13:00 +28°C° 0.8 mm 1 mps 672 mmHg 77%
    14:00 +28°C° 0.8 mm 1 mps 672 mmHg 76%
    15:00 +28°C° 0.3 mm 1 mps 671 mmHg 79%
    16:00 +25°C° 0.3 mm 0 mps 671 mmHg 81%
    17:00 +24°C° 0.3 mm 0 mps 671 mmHg 84%
    18:00 +23°C° 0.1 mm 0 mps 671 mmHg 85%
    19:00 +23°C° 0.1 mm 0 mps 672 mmHg 86%
    20:00 +24°C° 0.1 mm 1 mps 672 mmHg 87%
    21:00 +23°C° 0.1 mm 1 mps 672 mmHg 87%
    22:00 +23°C° 0.1 mm 1 mps 673 mmHg 87%
    23:00 +22°C° 0.1 mm 1 mps 673 mmHg 87%

    1 Marzo, Domingo

    Tiempo Temperatura Precipitaciones Viento Presión Humedad
    00:00 +22°C° 0.2 mm 1 mps 673 mmHg 87%
    01:00 +20°C° 0.2 mm 0 mps 672 mmHg 88%
    02:00 +20°C° 0.2 mm 0 mps 672 mmHg 88%
    03:00 +20°C° 0.2 mm 0 mps 672 mmHg 88%
    04:00 +20°C° 0.2 mm 0 mps 672 mmHg 88%
    05:00 +20°C° 0.2 mm 0 mps 672 mmHg 88%
    06:00 +21°C° 0.5 mm 0 mps 673 mmHg 88%
    07:00 +21°C° 0.5 mm 0 mps 673 mmHg 88%
    08:00 +22°C° 0.5 mm 0 mps 674 mmHg 88%
    09:00 +23°C° 0.7 mm 0 mps 674 mmHg 86%
    10:00 +25°C° 0.7 mm 1 mps 674 mmHg 85%
    11:00 +26°C° 0.7 mm 1 mps 674 mmHg 83%
    12:00 +26°C° 0.6 mm 2 mps 673 mmHg 82%
    13:00 +27°C° 0.6 mm 2 mps 673 mmHg 81%
    14:00 +27°C° 0.6 mm 3 mps 672 mmHg 80%
    15:00 +26°C° 0.4 mm 3 mps 672 mmHg 81%
    16:00 +26°C° 0.4 mm 2 mps 672 mmHg 82%
    17:00 +26°C° 0.4 mm 2 mps 672 mmHg 83%
    18:00 +25°C° 0.9 mm 2 mps 672 mmHg 86%
    19:00 +24°C° 0.9 mm 2 mps 672 mmHg 89%
    20:00 +22°C° 0.9 mm 1 mps 673 mmHg 92%
    21:00 +22°C° 1.9 mm 1 mps 673 mmHg 93%
    22:00 +22°C° 1.9 mm 1 mps 673 mmHg 94%
    23:00 +22°C° 1.9 mm 1 mps 674 mmHg 95%

    2 Marzo, Lunes

    Tiempo Temperatura Precipitaciones Viento Presión Humedad
    00:00 +21°C° 1 mm 1 mps 674 mmHg 96%
    01:00 +21°C° 1 mm 1 mps 673 mmHg 97%
    02:00 +21°C° 1 mm 1 mps 673 mmHg 97%
    03:00 +21°C° 0.7 mm 1 mps 673 mmHg 97%
    04:00 +19°C° 0.7 mm 0 mps 673 mmHg 97%
    05:00 +19°C° 0.7 mm 0 mps 673 mmHg 97%
    06:00 +19°C° 0.5 mm 0 mps 674 mmHg 97%
    07:00 +19°C° 0.5 mm 0 mps 675 mmHg 97%
    08:00 +19°C° 0.5 mm 0 mps 675 mmHg 97%
    09:00 +19°C° 0.6 mm 0 mps 675 mmHg 96%
    10:00 +20°C° 0.6 mm 0 mps 675 mmHg 95%
    11:00 +22°C° 0.6 mm 1 mps 675 mmHg 94%
    12:00 +22°C° 0.1 mm 1 mps 674 mmHg 92%
    13:00 +23°C° 0.1 mm 1 mps 674 mmHg 89%
    14:00 +23°C° 0.1 mm 1 mps 673 mmHg 87%
    15:00 +24°C° 0 mm 1 mps 673 mmHg 84%
    16:00 +24°C° 0 mm 1 mps 672 mmHg 82%
    17:00 +22°C° 0 mm 0 mps 672 mmHg 80%
    18:00 +21°C° 0 mm 0 mps 672 mmHg 82%
    19:00 +20°C° 0 mm 0 mps 673 mmHg 84%
    20:00 +19°C° 0 mm 0 mps 673 mmHg 87%
    21:00 +19°C° 0 mm 0 mps 673 mmHg 84%
    22:00 +21°C° 0 mm 1 mps 673 mmHg 81%
    23:00 +21°C° 0 mm 1 mps 674 mmHg 79%
    Mostrar más